Regional Weather Roundup
Issued by NWS

Home | Current Version | Previous Version | Text Only | Print | Product List | Glossary Off
Versions: 1 2 3 4 5 6 7 8 9 10 11 12 13 14 15 16 17 18 19 20 21 22 23 24 25 26 27 28 29 30 31 32 33 34 35 36 37 38 39 40 41 42 43 44 45 46 47 48 49 50

538
ASUS43 KOAX 131002
RWRNE

WEATHER ROUNDUP FOR NEBRASKA
NATIONAL WEATHER SERVICE OMAHA NE
400 AM CST WED DEC 13 2017

NOTES: SATELLITE DATA IS BEING USED TO AUGMENT CLOUD COVER ABOVE
       12000 FEET.
       "FAIR" INDICATES FEW OR NO CLOUDS BELOW 12,000 FEET WITH NO
       SIGNIFICANT WEATHER AND/OR OBSTRUCTIONS TO VISIBILITY.


NEZ001>004-019>022-054>056-131100-
NEBRASKA PANHANDLE

CITY           SKY/WX    TMP DP  RH WIND       PRES   REMARKS
SCOTTSBLUFF    CLOUDY    40  14  34 NW9       30.05R WCI  34
ALLIANCE       CLOUDY    48  16  27 NW24G33   29.97R
CHADRON        PTCLDY    45  15  30 W16       30.01R
GORDON         FAIR      40  19  41 NW7       29.94S
KIMBALL        CLOUDY    42   8  24 NW14      30.07R
SIDNEY         CLOUDY    46   9  22 NW17      30.03R
$$

NEZ057>060-069>072-079>082-131100-
SOUTHWEST NEBRASKA

CITY           SKY/WX    TMP DP  RH WIND       PRES   REMARKS
NORTH PLATTE   CLOUDY    27  20  75 NW5       29.91R WCI  22
IMPERIAL       CLEAR     42  12  29 W12       29.94R
LEXINGTON      CLOUDY    37  19  50 NW17      29.86R WCI  27
MCCOOK         CLOUDY    38  16  40 W16       29.90R WCI  29
OGALLALA       CLOUDY    50  12  21 NW23G29   29.94R
$$

NEZ005>010-023>029-035>040-094-131100-
NORTH CENTRAL NEBRASKA

CITY           SKY/WX    TMP DP  RH WIND       PRES   REMARKS
VALENTINE      PTCLDY    52  19  27 NW29G41   29.82S
AINSWORTH      CLOUDY    52  21  29 NW25G36   29.80S
BROKEN BOW     CLOUDY    51  18  27 NW22G29   29.81R
O`NEILL        CLOUDY    53  25  34 NW26G33   29.71F
ORD            MOCLDY    50  18  28 W15G24    29.75F
THEDFORD       CLOUDY    51  20  30 NW21G29   29.86F
$$

NEZ041-046>049-061>064-073>077-083>087-131100-
SOUTH CENTRAL NEBRASKA

CITY           SKY/WX    TMP DP  RH WIND       PRES   REMARKS
GRAND ISLAND   CLEAR     43  21  41 NW15      29.77R
AURORA         CLEAR     40  20  44 NW15      29.75R WCI  32
HASTINGS       CLEAR     43  19  38 NW16G24   29.78R
HEBRON         CLEAR     39  22  50 W3        29.75S
HOLDREGE       CLOUDY    40  21  47 NW15      29.84R WCI  31
KEARNEY        MOCLDY    48  18  30 NW16      29.81R
YORK           CLOUDY    45  21  39 NW13      29.73R
$$

NEZ011>018-030>034-042>045-131100-
NORTHEAST NEBRASKA

CITY           SKY/WX    TMP DP  RH WIND       PRES   REMARKS
NORFOLK        CLEAR     47  21  35 W17       29.65R
ALBION         PTCLDY    54  20  26 NW21G33   29.70S
BLAIR          CLOUDY    39  24  53 W8        29.62F WCI  34
COLUMBUS       CLOUDY    38  21  50 W9        29.69F WCI  31
FREMONT        CLOUDY    38  22  53 W14       29.65F WCI  30
TEKAMAH        CLOUDY    40  22  48 W15       29.61S WCI  32
WAYNE          CLEAR     47  16  28 NW14      29.63R
$$

NEZ050>053-065>068-078-088>093-131100-
SOUTHEAST NEBRASKA

CITY           SKY/WX    TMP DP  RH WIND       PRES   REMARKS
LINCOLN        CLEAR     35  21  56 CALM      29.70F
OMAHA EPPLEY   CLOUDY    31  22  69 S7        29.64S WCI  24
BEATRICE       CLEAR     37  23  58 W10       29.71S WCI  29
FALLS CITY     CLEAR     38  23  55 W6        29.68F WCI  33
NEBRASKA CITY  CLEAR     38  25  58 W20       29.65F WCI  28
PLATTSMOUTH    CLEAR     38  24  56 W9        29.65S WCI  32
$$

NEZ044-045-051>053-067-131100-
OMAHA AREA

CITY           SKY/WX    TMP DP  RH WIND       PRES   REMARKS
OMAHA EPPLEY   CLOUDY    31  22  69 S7        29.64S WCI  24
BLAIR          CLOUDY    39  24  53 W8        29.62F WCI  34
FREMONT        CLOUDY    38  22  53 W14       29.65F WCI  30
MILLARD        CLOUDY    40  24  53 W6        29.65R
OFFUTT AFB     CLEAR     24  20  83 W3        29.64F
PLATTSMOUTH    CLEAR     38  24  56 W9        29.65S WCI  32
WAHOO          FAIR      45  22  39 W20G26    29.65F
$$




USA.gov is the U.S. government's official web portal to all federal, state and local government web resources and services.